Weather History for Hailey, ID

Change the Weather History Date:

Tuesday, December 4, 2012

  Actual Average Record
Temperature  
Mean Temperature 32 °F -  
Max Temperature 35 °F 35 °F 46 °F (2007)
Min Temperature 28 °F 17 °F 0 °F (1996)
Degree Days  
Heating Degree Days 34    
Moisture  
Dew Point 28 °F    
Average Humidity 90    
Maximum Humidity 100    
Minimum Humidity 75    
Precipitation  
Precipitation 0.00 in - - ()
Sea Level Pressure  
Sea Level Pressure 30.21 in    
Wind  
Wind Speed 8 mph (NW)    
Max Wind Speed 12 mph    
Max Gust Speed -    
Visibility 6 miles    
Events Rain , Snow    
Averages and records for this station are not official NWS values.
T = Trace of Precipitation, MM = Missing Value Source: NWS Daily Summary

Daily Weather History Graph

Daily Weather History Graph

Search for Another Location

Airport:

Trip Planner

Search our weather history database for the weather conditions in past years. The results will help you decide how hot, cold, wet, or windy it might be!

Date:

Astronomy

Dec. 04, 2012 Rise Set
Actual Time 7:54 AM MST 5:01 PM MST
Civil Twilight 7:21 AM MST 5:33 PM MST
Nautical Twilight 6:45 AM MST 6:09 PM MST
Astronomical Twilight 6:11 AM MST 6:43 PM MST
Moon 10:59 PM MST (12/4) 11:43 AM MST (12/4)
Length of Visible Light 10h 11m
Length of Day
9h 07m
Waning Gibbous, 69% of the Moon is Illuminated
Dec 4
Waning Gibbous
Dec 6
Last Quarter
Dec 13
New
Dec 19
First Quarter
Dec 28
Full

Hourly Weather History & Observations

Time (MST) Temp. Windchill Dew Point Humidity Pressure Visibility Wind Dir Wind Speed Gust Speed Precip Events Conditions
12:15 AM 28.4 °F 19.1 °F 23.0 °F 80% 30.25 in 10.0 mi NW 10.4 mph - N/A   Clear
12:35 AM 28.4 °F 19.1 °F 23.0 °F 80% 30.25 in 10.0 mi NNW 10.4 mph - N/A   Clear
12:55 AM 28.4 °F 19.1 °F 23.0 °F 80% 30.25 in 10.0 mi NW 10.4 mph - N/A   Clear
1:15 AM 28.4 °F 18.5 °F 23.0 °F 80% 30.24 in 10.0 mi NW 11.5 mph - N/A   Mostly Cloudy
1:35 AM 28.4 °F 19.1 °F 23.0 °F 80% 30.23 in 10.0 mi NW 10.4 mph - N/A   Mostly Cloudy
1:55 AM 28.4 °F 19.1 °F 23.0 °F 80% 30.23 in 10.0 mi NNW 10.4 mph - N/A   Overcast
2:15 AM 28.4 °F 19.1 °F 23.0 °F 80% 30.23 in 10.0 mi NW 10.4 mph - N/A   Scattered Clouds
2:35 AM 28.4 °F 18.5 °F 23.0 °F 80% 30.22 in 10.0 mi NW 11.5 mph - N/A   Mostly Cloudy
2:55 AM 28.4 °F 19.7 °F 23.0 °F 80% 30.23 in 10.0 mi NW 9.2 mph - N/A   Overcast
3:15 AM 28.4 °F 21.2 °F 23.0 °F 80% 30.23 in 10.0 mi NW 6.9 mph - N/A   Mostly Cloudy
3:35 AM 28.4 °F 19.7 °F 23.0 °F 80% 30.23 in 10.0 mi NW 9.2 mph - N/A   Overcast
3:55 AM 28.4 °F 20.4 °F 23.0 °F 80% 30.23 in 10.0 mi NW 8.1 mph - N/A   Overcast
4:15 AM 30.2 °F 23.4 °F 23.0 °F 75% 30.21 in 10.0 mi NW 6.9 mph - N/A   Overcast
4:35 AM 30.2 °F 24.3 °F 23.0 °F 75% 30.21 in 10.0 mi NW 5.8 mph - N/A   Overcast
4:55 AM 30.2 °F 21.9 °F 23.0 °F 75% 30.21 in 10.0 mi NW 9.2 mph - N/A   Overcast
5:15 AM 30.2 °F 22.6 °F 23.0 °F 75% 30.23 in 10.0 mi NW 8.1 mph - N/A   Overcast
5:35 AM 30.2 °F 21.9 °F 23.0 °F 75% 30.24 in 10.0 mi NW 9.2 mph - N/A   Overcast
5:55 AM 30.2 °F 22.6 °F 26.6 °F 86% 30.23 in 1.5 mi NW 8.1 mph - N/A Snow Light Snow
6:47 AM 28.4 °F 23.3 °F 28.4 °F 100% 30.25 in 1.0 mi WNW 4.6 mph - N/A Snow Light Snow
7:47 AM 28.4 °F 20.4 °F 28.4 °F 100% 30.25 in 0.8 mi WNW 8.1 mph - N/A Snow Light Snow
8:47 AM 28.4 °F 21.2 °F 28.4 °F 100% 30.25 in 0.8 mi WNW 6.9 mph - N/A Snow Snow
9:51 AM 30.2 °F 24.3 °F 28.4 °F 93% 30.25 in 0.8 mi NW 5.8 mph - N/A Snow Light Snow
10:47 AM 32.0 °F 25.6 °F 30.2 °F 93% 30.25 in 3.0 mi WNW 6.9 mph - N/A Snow Light Snow
11:47 AM 33.8 °F 28.6 °F 30.2 °F 87% 30.24 in 10.0 mi WNW 5.8 mph - N/A   Overcast
12:10 PM 33.8 °F 26.4 °F 30.2 °F 87% 30.25 in 2.0 mi NW 9.2 mph - N/A Snow Light Snow
12:52 PM 33.8 °F 27.7 °F 32.0 °F 93% 30.23 in 2.0 mi NW 6.9 mph - N/A Snow Light Snow
2:05 PM 33.8 °F - 32.0 °F 93% 30.20 in 2.0 mi Calm Calm - N/A Snow Light Snow
2:47 PM 33.8 °F 27.7 °F 33.8 °F 100% 30.19 in 7.0 mi West 6.9 mph - N/A   Overcast
3:55 PM 35.6 °F - 33.8 °F 93% 30.18 in 4.0 mi Calm Calm - N/A   Overcast
4:47 PM 33.8 °F 29.6 °F 33.8 °F 100% 30.18 in 5.0 mi NW 4.6 mph - N/A   Overcast
5:47 PM 33.8 °F - 33.8 °F 100% 30.17 in 3.0 mi Calm Calm - N/A   Overcast
6:47 PM 33.8 °F 29.6 °F 33.8 °F 100% 30.17 in 4.0 mi WNW 4.6 mph - N/A   Overcast
7:47 PM 33.8 °F 30.8 °F 33.8 °F 100% 30.17 in 3.0 mi NW 3.5 mph - N/A Rain Light Rain
8:47 PM 33.8 °F 29.6 °F 33.8 °F 100% 30.15 in 5.0 mi WNW 4.6 mph - N/A Rain Light Rain
9:47 PM 33.8 °F 29.6 °F 33.8 °F 100% 30.14 in 3.0 mi NNW 4.6 mph - N/A Rain Light Rain
10:15 PM 33.8 °F 30.8 °F 33.8 °F 100% 30.14 in 3.0 mi NNW 3.5 mph - N/A   Overcast
10:35 PM 33.8 °F 27.7 °F 33.8 °F 100% 30.15 in 4.0 mi NNW 6.9 mph - N/A   Overcast
10:47 PM 33.8 °F 28.6 °F 33.8 °F 100% 30.14 in 3.0 mi NW 5.8 mph - N/A Rain Light Rain
10:55 PM 33.8 °F 29.6 °F 33.8 °F 100% 30.14 in 2.5 mi NNW 4.6 mph - N/A   Overcast
11:15 PM 33.8 °F 29.6 °F 33.8 °F 100% 30.13 in 4.0 mi NW 4.6 mph - N/A   Overcast
11:35 PM 33.8 °F 29.6 °F 33.8 °F 100% 30.13 in 5.0 mi NNW 4.6 mph - N/A   Overcast
11:55 PM 33.8 °F 28.6 °F 33.8 °F 100% 30.12 in 7.0 mi NW 5.8 mph - N/A   Overcast